When you browse on this site, cookies collect data to enhance your experience and personalize the content and advertising you see.
Visit our Privacy Policy to learn more. By continuing to use the site, you agree to this use of cookies and data.
  • en Suisse
  • Liste des pays
  • À 7 jours
  • Température de l'eau
  • Carte météo
  • Widgets météo
  • user-avatar
    Se connecter

    Météo par heure à Limoges

    Ce jour, 4 Juin, Jeudi

    Heure Température Précipitation Vent Pression Humidité
    00:00 +12°C° 0 mm 1 m/s 722 mmHg 99%
    01:00 +12°C° 0 mm 1 m/s 722 mmHg 99%
    02:00 +11°C° 0 mm 1 m/s 721 mmHg 99%
    03:00 +11°C° 0 mm 1 m/s 721 mmHg 99%
    04:00 +12°C° 0 mm 2 m/s 721 mmHg 99%
    05:00 +12°C° 0 mm 2 m/s 721 mmHg 98%
    06:00 +13°C° 0 mm 2 m/s 721 mmHg 98%
    07:00 +13°C° 0.2 mm 2 m/s 721 mmHg 96%
    08:00 +14°C° 0.2 mm 2 m/s 721 mmHg 94%
    09:00 +15°C° 0.2 mm 1 m/s 721 mmHg 91%
    10:00 +15°C° 1.1 mm 1 m/s 721 mmHg 91%
    11:00 +16°C° 1.1 mm 2 m/s 721 mmHg 91%
    12:00 +17°C° 1.1 mm 2 m/s 721 mmHg 91%
    13:00 +16°C° 1 mm 2 m/s 721 mmHg 92%
    14:00 +16°C° 1 mm 2 m/s 721 mmHg 92%
    15:00 +16°C° 1 mm 3 m/s 721 mmHg 92%
    16:00 +16°C° 0.5 mm 3 m/s 722 mmHg 92%
    17:00 +15°C° 0.5 mm 2 m/s 722 mmHg 93%
    18:00 +15°C° 0.5 mm 2 m/s 722 mmHg 93%
    19:00 +14°C° 0.1 mm 2 m/s 723 mmHg 95%
    20:00 +13°C° 0.1 mm 2 m/s 724 mmHg 96%
    21:00 +11°C° 0.1 mm 1 m/s 725 mmHg 98%
    22:00 +10°C° 0 mm 2 m/s 725 mmHg 98%
    23:00 +10°C° 0 mm 2 m/s 725 mmHg 98%

    Demain, 5 Juin, Vendredi

    Heure Température Précipitation Vent Pression Humidité
    00:00 +9°C° 0 mm 2 m/s 726 mmHg 98%
    01:00 +8°C° 0 mm 2 m/s 725 mmHg 98%
    02:00 +8°C° 0 mm 1 m/s 725 mmHg 98%
    03:00 +7°C° 0 mm 1 m/s 725 mmHg 98%
    04:00 +8°C° 0 mm 1 m/s 726 mmHg 97%
    05:00 +8°C° 0 mm 1 m/s 726 mmHg 96%
    06:00 +9°C° 0 mm 1 m/s 726 mmHg 96%
    07:00 +8°C° 0.1 mm 2 m/s 726 mmHg 95%
    08:00 +9°C° 0.1 mm 2 m/s 726 mmHg 95%
    09:00 +10°C° 0.1 mm 3 m/s 726 mmHg 95%
    10:00 +11°C° 0.2 mm 3 m/s 726 mmHg 96%
    11:00 +11°C° 0.2 mm 3 m/s 726 mmHg 97%
    12:00 +12°C° 0.2 mm 4 m/s 726 mmHg 98%
    13:00 +13°C° 0.2 mm 4 m/s 726 mmHg 98%
    14:00 +13°C° 0.2 mm 3 m/s 726 mmHg 97%
    15:00 +13°C° 0.2 mm 3 m/s 726 mmHg 97%
    16:00 +14°C° 0.3 mm 3 m/s 726 mmHg 97%
    17:00 +14°C° 0.3 mm 3 m/s 726 mmHg 97%
    18:00 +14°C° 0.3 mm 3 m/s 726 mmHg 96%
    19:00 +13°C° 0.1 mm 3 m/s 726 mmHg 97%
    20:00 +13°C° 0.1 mm 3 m/s 726 mmHg 97%
    21:00 +12°C° 0.1 mm 3 m/s 727 mmHg 98%
    22:00 +12°C° 0.1 mm 3 m/s 726 mmHg 98%
    23:00 +12°C° 0.1 mm 3 m/s 726 mmHg 98%

    Après-demain, 6 Juin, Samedi

    Heure Température Précipitation Vent Pression Humidité
    00:00 +12°C° 0.1 mm 3 m/s 726 mmHg 98%
    01:00 +12°C° 0.2 mm 3 m/s 726 mmHg 98%
    02:00 +12°C° 0.2 mm 3 m/s 726 mmHg 98%
    03:00 +12°C° 0.2 mm 3 m/s 726 mmHg 98%
    04:00 +12°C° 0.2 mm 3 m/s 726 mmHg 98%
    05:00 +12°C° 0.2 mm 3 m/s 726 mmHg 98%
    06:00 +13°C° 0.2 mm 3 m/s 726 mmHg 99%
    07:00 +13°C° 0.4 mm 3 m/s 726 mmHg 98%
    08:00 +13°C° 0.4 mm 3 m/s 727 mmHg 98%
    09:00 +13°C° 0.4 mm 3 m/s 727 mmHg 97%
    10:00 +14°C° 0.4 mm 3 m/s 727 mmHg 96%
    11:00 +14°C° 0.4 mm 3 m/s 727 mmHg 94%
    12:00 +14°C° 0.4 mm 3 m/s 727 mmHg 92%
    13:00 +14°C° 0.5 mm 3 m/s 727 mmHg 91%
    14:00 +14°C° 0.5 mm 3 m/s 727 mmHg 91%
    15:00 +14°C° 0.5 mm 3 m/s 727 mmHg 90%
    16:00 +14°C° 0.1 mm 3 m/s 727 mmHg 85%
    17:00 +15°C° 0.1 mm 2 m/s 727 mmHg 79%
    18:00 +15°C° 0.1 mm 2 m/s 727 mmHg 74%
    19:00 +13°C° 0 mm 2 m/s 728 mmHg 80%
    20:00 +10°C° 0 mm 2 m/s 728 mmHg 86%
    21:00 +9°C° 0 mm 1 m/s 728 mmHg 91%
    22:00 +8°C° 0 mm 1 m/s 728 mmHg 93%
    23:00 +7°C° 0 mm 1 m/s 728 mmHg 95%

    7 Juin, Dimanche

    Heure Température Précipitation Vent Pression Humidité
    00:00 +5°C° 0 mm 0 m/s 729 mmHg 97%
    01:00 +5°C° 0 mm 0 m/s 729 mmHg 97%
    02:00 +6°C° 0 mm 0 m/s 729 mmHg 96%
    03:00 +6°C° 0 mm 0 m/s 729 mmHg 95%
    04:00 +7°C° 0 mm 0 m/s 729 mmHg 92%
    05:00 +7°C° 0 mm 0 m/s 729 mmHg 90%
    06:00 +8°C° 0 mm 0 m/s 729 mmHg 87%
    07:00 +11°C° 0 mm 1 m/s 730 mmHg 75%
    08:00 +13°C° 0 mm 1 m/s 730 mmHg 62%
    09:00 +15°C° 0 mm 2 m/s 731 mmHg 49%
    10:00 +15°C° 0 mm 2 m/s 730 mmHg 48%
    11:00 +16°C° 0 mm 2 m/s 730 mmHg 47%
    12:00 +16°C° 0 mm 2 m/s 730 mmHg 46%
    13:00 +17°C° 0 mm 2 m/s 730 mmHg 46%
    14:00 +17°C° 0 mm 2 m/s 730 mmHg 46%
    15:00 +17°C° 0 mm 2 m/s 730 mmHg 46%
    16:00 +16°C° 0 mm 2 m/s 730 mmHg 54%
    17:00 +16°C° 0 mm 2 m/s 730 mmHg 61%
    18:00 +15°C° 0 mm 1 m/s 730 mmHg 68%
    19:00 +13°C° 0 mm 1 m/s 731 mmHg 77%
    20:00 +12°C° 0 mm 1 m/s 731 mmHg 86%
    21:00 +10°C° 0 mm 1 m/s 731 mmHg 95%
    22:00 +9°C° 0 mm 1 m/s 731 mmHg 96%
    23:00 +8°C° 0 mm 0 m/s 731 mmHg 96%

    8 Juin, Lundi

    Heure Température Précipitation Vent Pression Humidité
    00:00 +7°C° 0 mm 0 m/s 731 mmHg 97%
    01:00 +7°C° 0 mm 0 m/s 731 mmHg 97%
    02:00 +7°C° 0 mm 0 m/s 731 mmHg 97%
    03:00 +6°C° 0 mm 0 m/s 731 mmHg 98%
    04:00 +7°C° 0 mm 0 m/s 731 mmHg 96%
    05:00 +8°C° 0 mm 0 m/s 732 mmHg 94%
    06:00 +9°C° 0 mm 0 m/s 732 mmHg 92%
    07:00 +12°C° 0.2 mm 1 m/s 732 mmHg 87%
    08:00 +13°C° 0.2 mm 1 m/s 732 mmHg 81%
    09:00 +15°C° 0.2 mm 2 m/s 733 mmHg 75%
    10:00 +15°C° 0.5 mm 2 m/s 732 mmHg 76%
    11:00 +16°C° 0.5 mm 2 m/s 732 mmHg 76%
    12:00 +16°C° 0.5 mm 2 m/s 732 mmHg 76%
    13:00 +17°C° 0.2 mm 2 m/s 732 mmHg 69%
    14:00 +18°C° 0.2 mm 2 m/s 732 mmHg 61%
    15:00 +19°C° 0.2 mm 2 m/s 732 mmHg 53%
    16:00 +18°C° 0.2 mm 2 m/s 732 mmHg 61%
    17:00 +18°C° 0.2 mm 2 m/s 732 mmHg 68%
    18:00 +18°C° 0.2 mm 1 m/s 732 mmHg 76%
    19:00 +15°C° 0.1 mm 1 m/s 733 mmHg 83%
    20:00 +13°C° 0.1 mm 1 m/s 733 mmHg 89%
    21:00 +10°C° 0.1 mm 0 m/s 733 mmHg 96%
    22:00 +9°C° 0 mm 0 m/s 733 mmHg 96%
    23:00 +9°C° 0 mm 0 m/s 734 mmHg 96%

    9 Juin, Mardi

    Heure Température Précipitation Vent Pression Humidité
    00:00 +8°C° 0 mm 0 m/s 734 mmHg 97%
    01:00 +8°C° 0 mm 0 m/s 734 mmHg 97%
    02:00 +8°C° 0 mm 0 m/s 734 mmHg 97%
    03:00 +8°C° 0 mm 0 m/s 734 mmHg 98%
    04:00 +9°C° 0 mm 1 m/s 734 mmHg 97%
    05:00 +10°C° 0 mm 1 m/s 734 mmHg 96%
    06:00 +11°C° 0 mm 1 m/s 735 mmHg 96%
    07:00 +13°C° 0 mm 1 m/s 735 mmHg 87%
    08:00 +14°C° 0 mm 2 m/s 735 mmHg 78%
    09:00 +16°C° 0 mm 2 m/s 736 mmHg 70%
    10:00 +17°C° 0.1 mm 2 m/s 736 mmHg 62%
    11:00 +18°C° 0.1 mm 3 m/s 736 mmHg 54%
    12:00 +19°C° 0.1 mm 3 m/s 736 mmHg 46%
    13:00 +20°C° 0 mm 3 m/s 735 mmHg 46%
    14:00 +20°C° 0 mm 3 m/s 735 mmHg 45%
    15:00 +20°C° 0 mm 3 m/s 735 mmHg 45%
    16:00 +19°C° 0 mm 3 m/s 735 mmHg 49%
    17:00 +18°C° 0 mm 3 m/s 735 mmHg 53%
    18:00 +17°C° 0 mm 3 m/s 735 mmHg 57%
    19:00 +15°C° 0 mm 2 m/s 735 mmHg 67%
    20:00 +12°C° 0 mm 2 m/s 735 mmHg 77%
    21:00 +10°C° 0 mm 1 m/s 736 mmHg 87%
    22:00 +9°C° 0 mm 1 m/s 735 mmHg 90%
    23:00 +9°C° 0 mm 1 m/s 735 mmHg 93%
    Voir plus